Flag for Canada Weather past 2 weeks in Richmond Hill, Ontario, Canada

Now
84 °F

Scattered clouds.


Feels Like: 83 °F
Forecast: 61 / 84 °F
Wind: 12 mph from Southwest

Location: Toronto Buttonville

Current Time: Aug 2, 2015 at 2:46:16 PM

Latest Report: Aug 2, 2015 at 2:00 PM


Visibility: 15 mi

Pressure: 29.76 "Hg

Humidity: 37%

Dew point: 55 °F

Location of Richmond HillLocation

Historic Weather in Richmond Hill — Graph

°F

Richmond Hill temperature yesterday

Maximum temperature yesterday: 75 °F (at 1:00 PM)
Minimum temperature yesterday: 63 °F (at 5:00 AM)
Average temperature yesterday: 69 °F

Past Weeks' High & Low Weather Summary

 TemperatureHumidityPressure
High91 °F (Jul 27, 4:00 PM)89% (Jul 19, 5:00 AM)30.03 "Hg (Jul 19, 5:00 AM)
Low55 °F (Jul 23, 6:00 AM)31% (Jul 30, 6:00 PM)29.61 "Hg (Jul 21, 3:00 AM)
Average75 °F58%29.86 "Hg
* Reported Jul 18 1:00 PM — Aug 2 1:00 PM, Richmond Hill, Weather by CustomWeather, © 2015

Note: Actual official high and low records may vary slightly from our data, if they occured in-between our weather recording intervals... More about our weather records

Advertising

Richmond Hill weather history for previous 24 hours

 ConditionsComfort  
Time TempWeatherWind HumidityBarometerVisibility
1:00 PM
Sun, Aug 2
82 °FScattered clouds.9 mph37%29.79 "Hg15 mi
12:00 PM81 °FScattered clouds.13 mph39%29.81 "Hg15 mi
11:00 AM77 °FScattered clouds.7 mph44%29.81 "Hg15 mi
10:00 AM75 °FScattered clouds.5 mph54%29.83 "Hg15 mi
9:00 AM70 °FPartly sunny.3 mph69%29.84 "Hg15 mi
8:00 AM66 °FPartly sunny.2 mph73%29.83 "Hg15 mi
7:00 AM61 °FPassing clouds.No wind88%29.83 "Hg15 mi
6:00 AM61 °FPassing clouds.No wind83%29.82 "Hg15 mi
5:00 AM61 °FPassing clouds.No wind88%29.83 "Hg15 mi
4:00 AM63 °FPassing clouds.No wind83%29.83 "Hg15 mi
3:00 AM63 °FPassing clouds.No wind83%29.83 "Hg15 mi
2:00 AM63 °FPassing clouds.No wind88%29.84 "Hg15 mi
1:00 AM63 °FPassing clouds.2 mph83%29.84 "Hg15 mi
12:00 AM64 °FClear.2 mph83%29.84 "Hg15 mi
11:00 PM
Sat, Aug 1
64 °FClear.No wind83%29.85 "Hg15 mi
10:00 PM66 °FClear.No wind78%29.84 "Hg15 mi
9:00 PM68 °FPassing clouds.2 mph73%29.83 "Hg15 mi
8:00 PM70 °FScattered clouds.6 mph64%29.82 "Hg15 mi
7:00 PM73 °FPartly sunny.8 mph69%29.80 "Hg15 mi
6:00 PM73 °FPartly sunny.8 mph61%29.80 "Hg15 mi
5:00 PM70 °FThunderstorms. Partly sunny.3 mph69%29.81 "Hg15 mi
4:53 PM70 °FPartly sunny.5 mph69%29.81 "Hg15 mi
4:00 PM75 °FPartly sunny.10 mph50%29.80 "Hg15 mi
3:00 PM72 °FPartly sunny.10 mph61%29.82 "Hg15 mi
2:00 PM75 °FPartly sunny.12 mph44%29.82 "Hg15 mi
Weather by CustomWeather, © 2015

See weather overviewHow to use our weather pages